Regional Weather Roundup
Issued by NWS

Home | Current Version | Previous Version | Text Only | Print | Product List | Glossary Off
Versions: 1 2 3 4 5 6 7 8 9 10 11 12 13 14 15 16 17 18 19 20 21 22 23 24 25 26 27 28 29 30 31 32 33 34 35 36 37 38 39 40 41 42 43 44 45 46 47 48 49 50

526
ASUS45 KCYS 081310
RWRWY

WYOMING REGIONAL WEATHER ROUNDUP
NATIONAL WEATHER SERVICE CHEYENNE WY
600 AM MST MON FEB 08 2016

NOTE:  "FAIR" INDICATES FEW OR NO CLOUDS BELOW 12,000 FEET
WITH NO SIGNIFICANT WEATHER AND/OR OBSTRUCTIONS TO VISIBILITY.

WYZ001-081400-
YELLOWSTONE NATIONAL PARK

CITY           SKY/WX    TMP DP  RH WIND       PRES   REMARKS
LK YELLOWSTONE   N/A      9   5  84 CALM      30.59S
W YELLOWSTONE  NOT AVBL

$$
WYZ002>013-054>058-071-098>099-081400-
NORTHERN WYOMING

CITY           SKY/WX    TMP DP  RH WIND       PRES   REMARKS
JACKSON        FAIR       9   7  92 N5        30.60R WCI   0
CODY           FAIR      25  14  63 E5        30.40S WCI  19
GREYBULL       FAIR      21  17  84 CALM      30.45R
WORLAND        FAIR      16  13  88 SW3       30.44R
SHERIDAN       CLOUDY    30  12  47 CALM      30.38S
BUFFALO        CLOUDY    26  12  55 S5        30.39R WCI  20
GILLETTE       FAIR      23   9  55 W13       30.39R WCI  11
HULETT         PTSUNNY   27  10  50 W6        30.38S WCI  20
NEWCASTLE      FAIR      23   7  50 NW17      30.32F WCI   9

$$
WYZ014>020-022>026-101>103-081400-
CENTRAL WYOMING

CITY           SKY/WX    TMP DP  RH WIND       PRES   REMARKS
BIG PINEY      FAIR      20  14  77 NE15      30.51R WCI   6
PINEDALE       PTSUNNY   30  21  69 W26G32    30.48R WCI  16
DUBOIS         FAIR      32  21  64 W29G37    30.45S WCI  18
LANDER         FAIR      16   9  74 CALM      30.39S
RIVERTON       FAIR      15   9  76 N6        30.42R WCI   6
CASPER         FAIR      25  12  58 SW14      30.40R WCI  13
DOUGLAS        MOCLDY    20  12  71 NW12        N/A  WCI   8

$$
WYZ021-027>030-104>119-081400-
SOUTHERN WYOMING

CITY           SKY/WX    TMP DP  RH WIND       PRES   REMARKS
EVANSTON       FAIR      17  11  77 S7        30.60S WCI   8
FORT BRIDGER   SUNNY     28  18  64 W21       30.60S WCI  15
ROCK SPRINGS   FAIR      25  16  68 SW22      30.49S WCI  10
DIXON          FAIR      11   7  83 S3        30.55S
RAWLINS        FAIR      24  14  65 W18       30.45S WCI  10
SARATOGA       FAIR      27  18  69 W10       30.45S WCI  17
LARAMIE          N/A     30  16  56 CALM      30.35R
CHEYENNE       MOCLDY    34  19  54 NW18G29   30.31R WCI  23
TORRINGTON     CLOUDY    24  13  62 NW10      30.38R WCI  14
PINE BLUFFS    CLOUDY    25  14  63 N10       30.35R WCI  15

$$




USA.gov is the U.S. government's official web portal to all federal, state and local government web resources and services.